COSMOS 1275 DEB

Satellite information

Favourite Embed

Satellite Type and Status

DEBRISIN ORBIT

Key statistics

Satellite COSMOS 1275 DEB at a glance.

Uptime

16264

Days in orbit

Revolutions

≈ 13.9

Per day

Orbit

LEO

Low Earth Orbit

Inclination

82.9

Latest

Satellite identification and parameters

Extended collection of information and parameters for COSMOS 1275 DEB.

Object identification

Identified? True

Debris? True

Object name: COSMOS 1275 DEB

International designator: 1981-053AG

Object number (NORAD): 12676

Object ID (CCSDS): 12676

Country: COMMONWEALTH OF INDEPENDENT STATES (CIS)

Current information (Y/N): Y

RCS size: MEDIUM

Orbital parameters

Period: 103.849 minutes

Inclination: 82.9439 deg

SMA: 7318.594 km

Apoapsis: 971.661 km

Periapsis: 909.256 km

RAAN: 260.7765 deg

Eccentricy: 0.00426346

Argument of periapsis: 269.3381 deg

Mean anomaly: 265.0327 deg

Mean motion: 13.8663229 rev/day

Mean motion (dot): 0.00000869 rev/day2

B* drag term: 0.00072957223 1/REarth

Two-line elements (TLE)

Creation date: Dec. 14, 2025, 3:07 a.m.

Reference frame: TEME

Reference center: EARTH

Epoch: Dec. 13, 2025, 1:03 p.m. UTC

TLE line 0: 0 COSMOS 1275 DEB

TLE line 1: 1 12676U 81053AG 25347.54434934 .00000869 00000-0 72957-3 0 9992

TLE line 2: 2 12676 82.9439 260.7765 0042635 269.3381 265.0327 13.86632290234996

Live tracking on map

Real-time ground track for satellite COSMOS 1275 DEB.

In-orbit conjunctions

A list of the most updated potential collisions computed for object COSMOS 1275 DEB.

Target Orbit TCA Probability of collision Miss distance Type
CZ-2C DEB SSO 2025-01-29 18:19:40 0.0009430799 37.0 (m) DEBRIS

Associated space launch

Navigation satellite providing location information for the Tsiklon-B navigation system

COSMOS 1275 DEB was lifted into orbit during the mission ‘Kosmos-3M | Parus 27’, on board a Kosmos-3M space rocket.

The launch took place on June 4, 1981, 3:41 p.m. from 132/2.

For more information about the launch, click the button.

Launch to space Kosmos-3M | Parus 27
Kosmos-3M | Parus 27

Agency: N/A

Status: Launch Successful

Launch date: June 4, 1981, 3:41 p.m. UTC

Rocket: Kosmos-3M

Launch pad: 132/2

Location: Plesetsk Cosmodrome, Russian Federation

...

Latest news about this satellite

There are no fresh news available about this satellite. Check back as we update our databases every day.


Newsletter sign-up

Weekly statistics, charts and insights to help you stay on top of the space industry.